Regional Weather Roundup
Issued by NWS

Home | Current Version | Previous Version | Text Only | Print | Product List | Glossary On
Versions: 1 2 3 4 5 6 7 8 9 10 11 12 13 14 15 16 17 18 19 20 21 22 23 24 25 26 27 28 29 30 31 32 33 34 35 36 37 38 39 40 41 42 43 44 45 46 47 48 49 50
000
ASUS44 KOUN 281010
RWROK

WEATHER ROUNDUP FOR OKLAHOMA
NATIONAL WEATHER SERVICE NORMAN OK
500 AM CDT TUE MAR 28 2017

NOTE: "FAIR" INDICATES FEW OR NO CLOUDS BELOW 12,000 FEET WITH NO
      SIGNIFICANT WEATHER AND/OR OBSTRUCTIONS TO VISIBILITY.

OKZ001>007-009>012-014-015-017-281100-
NORTHWEST OKLAHOMA AND THE PANHANDLE

CITY           SKY/WX    TMP DP  RH WIND       PRES   REMARKS
GAGE           CLOUDY    49  45  86 SE8       29.91R
GUYMON         CLOUDY    50  45  83 SE12      29.87R
ENID/WOODRING  CLEAR     45  45 100 E9        29.95R FOG
$$

OKZ016-021>023-033>039-044-045-281100-
SOUTHWEST OKLAHOMA

CITY           SKY/WX    TMP DP  RH WIND       PRES   REMARKS
LAWTON/REGL    CLEAR     51  48  89 NE8       29.89S
LAWTON/FT SILL CLEAR     50  50  99 NE7       29.88S
FREDERICK      CLEAR     53  48  83 E14       29.83F
CLINTON        CLOUDY    50  46  86 E10       29.92R
HOBART         PTCLDY    49  46  90 E14       29.90S
ALTUS AFB      CLOUDY    50  45  81 NE10      29.86F
$$

OKZ018>020-024>031-281100-
CENTRAL OKLAHOMA

CITY           SKY/WX    TMP DP  RH WIND       PRES   REMARKS
OKLAHOMA CITY  PTCLDY    49  46  90 E12       29.92F
OKC/WILEY POST CLEAR     50  48  93 E10       29.92F
OKC/TINKER AFB CLEAR     48  47  94 E10       29.92F
STILLWATER     PTCLDY    44  42  93 NE6       29.95S FOG
GUTHRIE        CLOUDY    48  46  93 E7        29.94S
$$

OKZ008-013-054>072-281100-
NORTHEAST OKLAHOMA

CITY           SKY/WX    TMP DP  RH WIND       PRES   REMARKS
TULSA          CLOUDY    53  49  86 E6        29.96S
TULSA/JONES    CLOUDY    52  48  86 NE6       29.97S
PONCA CITY     MOCLDY    42  39  89 NE5       29.96F
BARTLESVILLE   CLOUDY    53  47  79 NE8       29.99F
MUSKOGEE       CLOUDY    52  49  89 NE6       29.98S
$$

OKZ032-040>043-046>053-073>077-281100-
SOUTH CENTRAL/SOUTHEAST OKLAHOMA

CITY           SKY/WX    TMP DP  RH WIND       PRES   REMARKS
ARDMORE/DWNTWN PTCLDY    52  46  82 E6        29.90S
MCALESTER      CLEAR     50  47  89 E3        29.94S
$$





USA.gov is the U.S. government's official web portal to all federal, state and local government web resources and services.